www.pogodaiklimat.ru

Погода и климат >> Архив погоды >> Россия >> Магаданская область >> Палатка


ПОГОДА в Палатке

  • Прогноз погоды в Палатке
  • Монитор погоды в Палатке

АРХИВ ПОГОДЫ в Палатке

Время (UTC), дата Ветер
(напр.,м/с)
 
Видим.   Явления Облачность Т
(С)
Тd
(С)
f
(%)
Тe
(С)
Тes
(С)
Комфортность P
(гПа)
Po
(гПа)
Тmin
(С)
Tmax
(С)
R
(мм)
R24
(мм)
S
(см)
00 14.06 Ю 1 50 км 9 баллов +8.2 +4.0 75 +8 +9 1018.4 977.3
03 14.06 З 4 50 км 1/1
[Cb cap]
+14.3 +5.9 57 +13 +21 1016.1 976.0
06 14.06 З 4 50 км 6/3 600 м
[Cb cap Ci fib]
+16.2 +4.9 47 +16 +17 1015.9 976.0
09 14.06 З 4 50 км 3/3 600 м
[Cb cap]
+13.3 +4.4 55 +12 +12 1017.6 977.3 +16.4
12 14.06 З 2 50 км 3/0
[Ci fib]
+6.1 +4.1 87 +4 +4 1020.1 978.7
15 14.06 В 1 50 км туман местами 4/3 200 м
[St Ci fib]
+1.5 +1.4 99 -1 -1 1020.9 978.7
18 14.06 штиль 0 2000 м туман местами 9/8 200 м
[St Ac trans]
+3.3 +3.2 99 +2 +2 1021.9 980.0
21 14.06 Ю 1 10 км туман местами 9/8 200 м
[St Ac trans]
+5.0 +4.2 95 +4 +4 1020.6 978.9 +1.0
00 15.06 З 1 20 км 9/9 300 м
[St]
+7.4 +4.9 84 +7 +8 1021.3 980.0
03 15.06 СЗ 3 50 км ясно +14.9 +5.7 54 +14 +26 опасность
простуды
1020.2 980.0
06 15.06 З 4 50 км ясно +17.3 +2.8 38 +17 +22 1018.5 978.7
09 15.06 З 3 50 км 1/0
[Ci fib]
+15.1 +3.6 46 +15 +15 1018.8 978.7 +17.4
12 15.06 В 2 50 км 6/0
[Ci fib]
+6.9 +3.3 78 +5 +5 1021.4 980.0
15 15.06 В 2 50 км 9/0
[Ac trans Ci fib]
+2.2 +1.6 96 -1 -1 1022.1 980.0
18 15.06 В 2 50 км 9/0
[Ci fib]
+0.9 +0.8 99 -3 -3 1022.3 980.0
21 15.06 С 1 50 км 9/1 1000 м
[Sc Ac trans]
+8.5 +4.5 76 +8 +10 1019.0 978.0 +0.2
00 16.06 Ю 3 50 км 9/3 600 м
[Cb cap Ac trans]
+13.3 +2.2 47 +12 +13 1019.1 978.7
03 16.06 ЮВ 2 20 км слаб. ливневой дождь 9/5 600 м
[Cb cap Ac trans]
+9.1 +8.0 93 +7 +9 1019.7 978.7
06 16.06 В 5-10
{10}
20 км слаб. ливневой дождь 9/6 600 м
[Cb cap Ac trans]
+7.8 +6.6 92 +4 +4 1017.0 976.0
09 16.06 В 3
{12}
20 км в посл. час ливневой дождь 9/9 600 м
[Cb cap]
+7.7 +5.8 88 +5 +5 1017.1 976.0 +13.7 8
12 16.06 В 3
{10}
20 км {ливн. осадки} 9/9 600 м
[Cb cap]
+6.8 +4.3 84 +4 +4 1017.2 976.0
15 16.06 ЮВ 4
{10}
50 км 8/8 600 м
[Cb cap]
+5.4 +1.5 76 +2 +2 1017.5 976.0
18 16.06 В 2
{10}
50 км 9/8 600 м
[Cb cap Ac trans]
+3.8 +0.8 81 +1 +1 1019.1 977.3
21 16.06 В 2 20 км 9/8 600 м
[Cb cap Ac trans]
+5.0 +0.6 73 +3 +3 1018.1 976.6 +3.7
00 17.06 В 4 20 км 9 баллов +7.5 +1.6 66 +4 +5 1018.5 977.3
03 17.06 В 3
{10}
20 км слаб. ливневой дождь 9/8 600 м
[Cb cap Ac trans]
+6.7 +3.0 77 +4 +5 1018.6 977.3
06 17.06 В 3 20 км слаб. ливневой дождь 9/8 600 м
[Cb cap Ac trans]
+7.0 +4.0 81 +4 +5 1017.2 976.0
09 17.06 В 2 20 км слаб. ливневой дождь 9/8 600 м
[Cb cap Ac trans]
+6.9 +5.4 90 +5 +5 1015.8 974.7 +8.1 0.8
12 17.06 штиль 0 20 км слаб. ливневой дождь 9/8 600 м
[Cb cap Ac trans]
+6.3 +5.9 97 +5 +5 1014.5 973.3
15 17.06 СВ 1 20 км слаб. ливневой дождь 9/8 600 м
[Cb cap Ac trans]
+6.7 +6.4 98 +5 +5 1011.7 970.7
18 17.06 СВ 2 20 км слаб. ливневой дождь 9/8 600 м
[Cb cap Ac trans]
+8.1 +6.9 92 +6 +6 1010.0 969.3
21 17.06 штиль 0 50 км {ливн. осадки} 9/8 600 м
[Cb cap Ac trans]
+9.4 +8.2 92 +9 +9 1007.5 967.1 +5.7 2
00 18.06 СВ 3 50 км {ливн. осадки} 9/9 600 м
[Cb calv]
+16.4 +6.8 53 +16 +17 1006.1 966.7
03 18.06 В 4
{11}
50 км 9/9 600 м
[Cu Sc]
+18.7 +2.9 35 +19 +20 1005.8 966.7
06 18.06 СВ 4 50 км 9/9 600 м
[Cu Sc]
+17.5 +4.8 43 +17 +18 1006.0 966.7
09 18.06 СВ 2 50 км в посл. час ливневой дождь 9/9 600 м
[Cb cap]
+16.4 +6.5 52 +17 +17 1006.1 966.7 +18.9 0.0
12 18.06 штиль 0 50 км слаб. ливневой дождь 9/9 600 м
[Cb cap]
+12.9 +8.2 73 +13 +13 1006.6 966.7
15 18.06 С 1 50 км {ливн. осадки} 9/9 600 м
[Cb cap]
+10.5 +6.4 76 +10 +10 1007.0 966.7
18 18.06 СВ 1 50 км {ливн. осадки} 9/9 600 м
[Cb cap]
+10.4 +5.8 73 +10 +10 1008.3 968.0
21 18.06 ЮЗ 1 50 км 9/9 1000 м
[Sc]
+12.5 +7.4 71 +13 +13 1006.3 966.3 +10.1 0.0
00 19.06 штиль 0 50 км 9/9 1000 м
[Sc]
+13.9 +9.3 74 +14 +15 1007.8 968.0
03 19.06 З 2 50 км 9/8 1000 м
[Sc Ac trans Ci fib]
+15.9 +8.1 60 +16 +17 1007.5 968.0
06 19.06 З 2 50 км 9/8 1000 м
[Sc Ac trans]
+13.6 +8.2 70 +13 +14 1009.2 969.3
09 19.06 В 2 50 км слаб. ливневой дождь 9/9 600 м
[Cb cap]
+11.3 +8.2 81 +10 +10 1009.5 969.3 +16.4 0.0
12 19.06 З 1 20 км слаб. ливневой дождь туман 9/8 600 м
[Cb cap Ac trans]
+9.3 +8.8 97 +9 +9 1011.3 970.7
15 19.06 В 1 10 км туман местами {ливн. осадки} 9/6 600 м
[Cb cap Ac trans]
+8.7 +8.6 99 +8 +8 1009.9 969.3
18 19.06 СВ 1 10 км слаб. ливневой дождь туман 9/8 600 м
[Cb cap Ac trans]
+8.5 +8.4 99 +8 +8 1009.9 969.3
21 19.06 штиль 0 4000 м слаб. ливневой дождь туман 9/8 600 м
[Cb cap Ac trans]
+10.0 +9.9 99 +9 +10 1009.3 968.8 +8.4 2
00 20.06 З 2 10 км туман местами {ливн. осадки} 9/8 200 м
[Cb cap Ac trans]
+11.5 +10.2 92 +10 +11 1010.9 970.7
03 20.06 З 2 20 км слаб. ливневой дождь туман 9/8 200 м
[Cb cap Ac trans]
+11.5 +10.6 94 +10 +12 1009.7 969.5
06 20.06 З 1 4000 м слаб. ливневой дождь туман 9/8 200 м
[Cb cap Ac trans]
+11.0 +10.2 95 +11 +11 1011.0 970.7
09 20.06 В 1 20 км слаб. ливневой дождь туман 9/8 200 м
[Cb cap Ac trans]
+9.1 +7.7 91 +8 +8 1012.7 972.0 +12.4 2
12 20.06 В 2 20 км слаб. ливневой дождь 9 баллов +8.5 +7.9 96 +6 +6 1014.1 973.3
15 20.06 В 1 20 км слаб. ливневой дождь 9 баллов +6.8 +6.2 96 +6 +6 1014.4 973.3
18 20.06 СВ 1 20 км слаб. ливневой дождь 9 баллов +6.6 +6.5 99 +5 +5 1015.9 974.7
21 20.06 штиль 0 20 км {ливн. осадки} 9/8 200 м
[Cb cap Ac trans]
+8.2 +6.5 89 +7 +8 1015.2 974.3 +6.3 4

 

Местоположение метеостанции Палатка (Магаданская область, Россия): широта 60.10 долгота 150.90 высота над уровнем моря 341 м.

В архиве по умолчанию представлена погода в Палатке за последнюю неделю. Архивные данные за месяц целиком и за предыдущие месяцы, начиная с января 2011 года, Вы можете получить, выбрав интересующий диапазон дат из раскрывающегося списка и нажав кнопку "Ввод!".


*Определитесь, кто Вы:
робот инопланетянин человек

Внимание! Время в таблицах - всемирное. Для получения местного времени необходимо прибавить поправку, которая равна 11 ч.

Смотрите также архив погоды в соседних городах и на ближайших метеорологических станциях:

Погода в Мадауне (Магаданская область, Россия) (57 км)
Погода в Магадане (Магаданская область, Россия) (62 км)
Погода в Оле (Магаданская область, Россия) (62 км)
Погода в Нагаева (Магаданская область, Россия) (65 км)
Погода в Армани (Магаданская область, Россия) (66 км)
Погода в Талоне (Магаданская область, Россия) (134 км)
Погода в Усть-Омчуге (Магаданская область, Россия) (134 км)
Погода в Талой (Магаданская область, Россия) (138 км)
Погода на Мысе Алевина (Магаданская область, Россия) (143 км)
Погода на Острове Спафарьева (Магаданская область, Россия) (150 км)

Пояснения к столбцам:

Ветер - указаны скорость ветра в м/с - средняя за 10 мин, порывы в срок и между сроками (в фигурных скобках) и направление, откуда дует ветер: С - северный, СВ - северо-восточный, В - восточный, ЮВ - юго-восточный, Ю - южный, ЮЗ - юго-западный, З - западный, СЗ - северо-западный.
Видимость - горизонтальная дальность видимости в метрах или километрах. При видимости от 1 до 10 км при отсутствии осадков обычно наблюдается дымка, при ухудшении видимости до 1 км и менее - туман. В сухую погоду видимость может ухудшаться дымом, пылью или мглою.
Явления - указаны атмосферные явления, наблюдавшиеся в срок или в последний час перед сроком; фигурными скобками обозначены явления, наблюдавшиеся между сроками (за 1-3 часа до срока); квадратными скобками обозначены град или гололедные отложения с указанием их диаметра в мм.
Облачность - указаны через наклонную черту общая и нижняя облачность в баллах и высота нижней границы облаков в метрах; квадратными скобками обозначены формы облаков: Ci - перистые, Cs - перисто-слоистые, Cc - перисто-кучевые, Ac - высококучевые, As - высокослоистые, Sc - слоисто-кучевые, Ns - слоисто-дождевые, Cu - кучевые, Cb - кучево-дождевые. Подробнее классификацию облаков см. в Атласе облаков (PDF).
T - Температура воздуха - температура, измеренная на высоте 2 м над землей.
Td - Температура точки росы - температура, при понижении до которой содержащийся в воздухе водяной пар достигнет насыщения.
f - Относительная влажность воздуха - влажноcть воздуха, измеренная на высоте 2 м над землей.
Te - Эффективная температура - температура, которую ощущает одетый по сезону человек в тени. Характеристика душности погоды. При расчете учитывается влияние влажности воздуха и скорости ветра на теплоощущения человека.
Tes - Эффективная температура на солнце - температура, которую ощущает человек, с поправкой на солнечный нагрев. Характеристика знойности погоды. Зависит от высоты солнца над горизонтом, облачности и скорости ветра. Ночью, в пасмурную погоду, а также при ветре 12 м/с и более поправка равна нулю.
P - Атмосферное давление - приведенное к уровню моря атмосферное давление.
Po - Атмосферное давление - измеренное на уровне метеостанции атмосферное давление.
Tmin - Минимальная температура - минимум температуры воздуха на высоте 2 м над землей.
Tmax - Максимальная температура - максимум температуры воздуха на высоте 2 м над землей.
R - Количество осадков - Количество выпавших осадков за период времени, мм. При наведении курсора мыши на число - период времени, за который выпало указанное количество осадков.
R24 - Количество осадков - Количество выпавших осадков за 24 часа, мм.
S - Снежный покров - Высота снежного покрова, см. При наведении курсора мыши на число - состояние снежного покрова и степень покрытия местности в баллах.